| time (UTC) | temp C | wind direction | speed KPH | gust KPH | rain 1hr cm | rain 24hr cm | rain mn cm | humidity % | barometer mb |
| 20260506135409 | 3 | 166 | 0.0 | 4.8 | 0.00 | 0.00 | 0.00 | 67 | 1016.5 |
| 20260506134902 | 3 | 354 | 0.0 | 4.8 | 0.00 | 0.00 | 0.00 | 67 | 1016.4 |
| 20260506134357 | 3 | 9 | 0.0 | 1.6 | 0.00 | 0.00 | 0.00 | 67 | 1016.4 |
| 20260506134352 | 2 | 100 | 0.0 | 1.6 | 0.00 | 0.00 | 0.00 | 67 | 1016.3 |
| 20260506133344 | 2 | 8 | 0.0 | 3.2 | 0.00 | 0.00 | 0.00 | 67 | 1016.3 |
| 20260506133107 | 2 | 174 | 0.0 | 4.8 | 0.00 | 0.00 | 0.00 | 70 | 1016.1 |
| 20260506132942 | 2 | 109 | 0.0 | 4.8 | 0.00 | 0.00 | 0.00 | 69 | 1016.2 |
| 20260506132059 | 2 | 119 | 0.0 | 6.4 | 0.00 | 0.00 | 0.00 | 72 | 1016.0 |
| 20260506131549 | 1 | 197 | 0.0 | 4.8 | 0.00 | 0.00 | 0.00 | 76 | 1016.0 |
| 20260506131422 | 2 | 175 | 0.0 | 6.4 | 0.00 | 0.00 | 0.00 | 74 | 1015.9 |
| 20260506130309 | 1 | 238 | 0.0 | 1.6 | 0.00 | 0.00 | 0.00 | 78 | 1015.8 |
| 20260506125803 | 0 | 110 | 0.0 | 3.2 | 0.00 | 0.00 | 0.00 | 79 | 1015.7 |
| 20260506125529 | 0 | 125 | 0.0 | 3.2 | 0.00 | 0.00 | 0.00 | 81 | 1015.7 |
| 20260506124751 | 0 | 89 | 0.0 | 1.6 | 0.00 | 0.00 | 0.00 | 81 | 1015.7 |
| 20260506124248 | 0 | 354 | 0.0 | 1.6 | 0.00 | 0.00 | 0.00 | 83 | 1015.6 |
| 20260506123748 | -1 | 133 | 0.0 | 0.0 | 0.00 | 0.00 | 0.00 | 84 | 1015.6 |
| 20260506123518 | -1 | 114 | 0.0 | 0.0 | 0.00 | 0.00 | 0.00 | 85 | 1015.6 |
| 20260506122749 | -1 | 111 | 0.0 | 1.6 | 0.00 | 0.00 | 0.00 | 85 | 1015.6 |
| 20260506122248 | -2 | 112 | 0.0 | 1.6 | 0.00 | 0.00 | 0.00 | 85 | 1015.6 |
| 20260506121748 | -2 | 153 | 0.0 | 0.0 | 0.00 | 0.00 | 0.00 | 85 | 1015.5 |
| 20260506121246 | -2 | 153 | 0.0 | 0.0 | 0.00 | 0.00 | 0.00 | 85 | 1015.5 |
| 20260506120746 | -2 | 153 | 0.0 | 0.0 | 0.00 | 0.00 | 0.00 | 85 | 1015.4 |
| 20260506120518 | -2 | 129 | 0.0 | 0.0 | 0.00 | 0.00 | 0.00 | 85 | 1015.4 |
| 20260506115744 | -2 | 129 | 0.0 | 0.0 | 0.00 | 0.00 | 0.00 | 84 | 1015.4 |
| 20260506115243 | -2 | 129 | 0.0 | 0.0 | 0.00 | 0.00 | 0.00 | 85 | 1015.4 |
| 20260506114741 | -2 | 128 | 0.0 | 0.0 | 0.00 | 0.00 | 0.00 | 85 | 1015.3 |
| 20260506114240 | -2 | 129 | 0.0 | 0.0 | 0.00 | 0.00 | 0.00 | 85 | 1015.2 |
| 20260506113741 | -2 | 128 | 0.0 | 0.0 | 0.00 | 0.00 | 0.00 | 85 | 1015.2 |
| 20260506113239 | -2 | 128 | 0.0 | 0.0 | 0.00 | 0.00 | 0.00 | 85 | 1015.1 |
| 20260506112738 | -2 | 128 | 0.0 | 0.0 | 0.00 | 0.00 | 0.00 | 86 | 1015.1 |
| 20260506112239 | -2 | 128 | 0.0 | 0.0 | 0.00 | 0.00 | 0.00 | 86 | 1015.1 |
| 20260506111742 | -2 | 129 | 0.0 | 0.0 | 0.00 | 0.00 | 0.00 | 86 | 1015.2 |
| 20260506111235 | -2 | 128 | 0.0 | 0.0 | 0.00 | 0.00 | 0.00 | 86 | 1015.2 |
| 20260506110730 | -2 | 148 | 0.0 | 0.0 | 0.00 | 0.00 | 0.00 | 86 | 1015.3 |
| 20260506110223 | -2 | 143 | 0.0 | 0.0 | 0.00 | 0.00 | 0.00 | 86 | 1015.2 |
| 20260506105718 | -2 | 143 | 0.0 | 0.0 | 0.00 | 0.00 | 0.00 | 85 | 1015.1 |
| 20260506105212 | -2 | 128 | 0.0 | 0.0 | 0.00 | 0.00 | 0.00 | 85 | 1015.1 |
| 20260506104706 | -2 | 127 | 0.0 | 0.0 | 0.00 | 0.00 | 0.00 | 87 | 1015.0 |
| 20260506104200 | -3 | 132 | 0.0 | 0.0 | 0.00 | 0.00 | 0.00 | 86 | 1014.8 |
| 20260506103653 | -3 | 133 | 0.0 | 0.0 | 0.00 | 0.00 | 0.00 | 86 | 1014.7 |
| 20260506103147 | -3 | 133 | 0.0 | 0.0 | 0.00 | 0.00 | 0.00 | 86 | 1014.5 |
| 20260506102642 | -3 | 133 | 0.0 | 0.0 | 0.00 | 0.00 | 0.00 | 86 | 1014.5 |
| 20260506102136 | -3 | 132 | 0.0 | 0.0 | 0.00 | 0.00 | 0.00 | 85 | 1014.6 |
| 20260506101629 | -2 | 133 | 0.0 | 0.0 | 0.00 | 0.00 | 0.00 | 85 | 1014.5 |
| 20260506101125 | -2 | 133 | 0.0 | 0.0 | 0.00 | 0.00 | 0.00 | 85 | 1014.5 |
| 20260506100617 | -2 | 132 | 0.0 | 0.0 | 0.00 | 0.00 | 0.00 | 85 | 1014.5 |
| 20260506100111 | -2 | 132 | 0.0 | 0.0 | 0.00 | 0.00 | 0.00 | 85 | 1014.6 |
| 20260506095606 | -2 | 133 | 0.0 | 0.0 | 0.00 | 0.00 | 0.00 | 86 | 1014.6 |
| 20260506095100 | -2 | 133 | 0.0 | 0.0 | 0.00 | 0.00 | 0.00 | 86 | 1014.6 |
| 20260506094554 | -2 | 132 | 0.0 | 0.0 | 0.00 | 0.00 | 0.00 | 86 | 1014.6 |
| 20260506094047 | -2 | 132 | 0.0 | 0.0 | 0.00 | 0.00 | 0.00 | 85 | 1014.7 |
| 20260506093541 | -2 | 132 | 0.0 | 0.0 | 0.00 | 0.00 | 0.00 | 84 | 1014.7 |
| 20260506093311 | -2 | 132 | 0.0 | 0.0 | 0.00 | 0.00 | 0.00 | 84 | 1014.6 |
| 20260506093035 | -2 | 133 | 0.0 | 0.0 | 0.00 | 0.00 | 0.00 | 84 | 1014.7 |
| 20260506092023 | -2 | 133 | 0.0 | 0.0 | 0.00 | 0.00 | 0.00 | 85 | 1014.6 |
| 20260506091517 | -2 | 133 | 0.0 | 0.0 | 0.00 | 0.00 | 0.00 | 85 | 1014.5 |
| 20260506091011 | -2 | 86 | 0.0 | 0.0 | 0.00 | 0.00 | 0.00 | 85 | 1014.5 |
| 20260506090505 | -2 | 84 | 0.0 | 0.0 | 0.00 | 0.00 | 0.00 | 86 | 1014.4 |
| 20260506090230 | -2 | 85 | 0.0 | 0.0 | 0.00 | 0.00 | 0.00 | 85 | 1014.4 |
| 20260506085454 | -2 | 85 | 0.0 | 0.0 | 0.00 | 0.00 | 0.00 | 85 | 1014.3 |
| 20260506084948 | -2 | 84 | 0.0 | 0.0 | 0.00 | 0.00 | 0.00 | 84 | 1014.2 |
| 20260506084441 | -2 | 84 | 0.0 | 0.0 | 0.00 | 0.00 | 0.00 | 85 | 1014.2 |
| 20260506083935 | -2 | 85 | 0.0 | 0.0 | 0.00 | 0.00 | 0.00 | 85 | 1014.2 |
| 20260506083700 | -2 | 92 | 0.0 | 0.0 | 0.00 | 0.00 | 0.00 | 86 | 1014.3 |
| 20260506082924 | -2 | 92 | 0.0 | 0.0 | 0.00 | 0.00 | 0.00 | 86 | 1014.3 |
| 20260506082418 | -2 | 91 | 0.0 | 0.0 | 0.00 | 0.00 | 0.00 | 86 | 1014.3 |
| 20260506081911 | -2 | 92 | 0.0 | 0.0 | 0.00 | 0.00 | 0.00 | 85 | 1014.3 |
| 20260506081636 | -2 | 92 | 0.0 | 0.0 | 0.00 | 0.00 | 0.00 | 83 | 1014.4 |
| 20260506080859 | -2 | 92 | 0.0 | 0.0 | 0.00 | 0.00 | 0.00 | 82 | 1014.4 |
| 20260506080359 | -1 | 92 | 0.0 | 0.0 | 0.00 | 0.00 | 0.00 | 80 | 1014.2 |
| 20260506080353 | -2 | 92 | 0.0 | 0.0 | 0.00 | 0.00 | 0.00 | 81 | 1014.3 |
| 20260506073317 | -1 | 92 | 0.0 | 0.0 | 0.00 | 0.00 | 0.00 | 79 | 1014.1 |
| 20260506073043 | -1 | 92 | 0.0 | 0.0 | 0.00 | 0.00 | 0.00 | 79 | 1014.1 |
| 20260506072306 | -1 | 91 | 0.0 | 0.0 | 0.00 | 0.00 | 0.00 | 79 | 1014.1 |
| 20260506071800 | -1 | 91 | 0.0 | 0.0 | 0.00 | 0.00 | 0.00 | 78 | 1014.1 |
| 20260506071254 | -1 | 92 | 0.0 | 0.0 | 0.00 | 0.00 | 0.00 | 78 | 1014.1 |
| 20260506070752 | -1 | 91 | 0.0 | 0.0 | 0.00 | 0.00 | 0.00 | 79 | 1014.2 |
| 20260506070237 | -1 | 92 | 0.0 | 0.0 | 0.00 | 0.00 | 0.00 | 78 | 1014.2 |
| 20260506062149 | -1 | 92 | 0.0 | 0.0 | 0.00 | 0.00 | 0.00 | 80 | 1014.2 |
| 20260506061643 | -1 | 92 | 0.0 | 0.0 | 0.00 | 0.00 | 0.00 | 80 | 1014.2 |
| 20260506061411 | -1 | 91 | 0.0 | 0.0 | 0.00 | 0.00 | 0.00 | 80 | 1014.2 |
| 20260506060637 | -1 | 91 | 0.0 | 0.0 | 0.00 | 0.00 | 0.00 | 79 | 1014.1 |
| 20260506060136 | -1 | 92 | 0.0 | 0.0 | 0.00 | 0.00 | 0.00 | 79 | 1014.2 |
| 20260506051134 | 0 | 92 | 0.0 | 0.0 | 0.00 | 0.00 | 0.00 | 75 | 1013.7 |
| 20260506050631 | 0 | 92 | 0.0 | 0.0 | 0.00 | 0.00 | 0.00 | 76 | 1013.6 |
| 20260506050130 | 0 | 91 | 0.0 | 0.0 | 0.00 | 0.00 | 0.00 | 76 | 1013.6 |
| 20260506045124 | 0 | 92 | 0.0 | 0.0 | 0.00 | 0.00 | 0.00 | 76 | 1013.5 |
| 20260506044625 | 0 | 91 | 0.0 | 0.0 | 0.00 | 0.00 | 0.00 | 75 | 1013.5 |
| 20260506044126 | 0 | 91 | 0.0 | 0.0 | 0.00 | 0.00 | 0.00 | 75 | 1013.6 |
| 20260506043624 | 0 | 91 | 0.0 | 0.0 | 0.00 | 0.00 | 0.00 | 74 | 1013.6 |
| 20260506043124 | 0 | 92 | 0.0 | 0.0 | 0.00 | 0.00 | 0.00 | 74 | 1013.6 |
| 20260506042623 | 0 | 90 | 0.0 | 0.0 | 0.00 | 0.00 | 0.00 | 74 | 1013.6 |
| 20260506042122 | 0 | 166 | 0.0 | 0.0 | 0.00 | 0.00 | 0.00 | 74 | 1013.5 |
| 20260506041623 | 0 | 179 | 0.0 | 0.0 | 0.00 | 0.00 | 0.00 | 73 | 1013.5 |
| 20260506041123 | 0 | 179 | 0.0 | 0.0 | 0.00 | 0.00 | 0.00 | 71 | 1013.5 |
| 20260506040622 | 1 | 181 | 0.0 | 0.0 | 0.00 | 0.00 | 0.00 | 71 | 1013.4 |
| 20260506040124 | 1 | 179 | 0.0 | 1.6 | 0.00 | 0.00 | 0.00 | 70 | 1013.2 |
| 20260506035620 | 1 | 180 | 0.0 | 1.6 | 0.00 | 0.00 | 0.00 | 70 | 1013.2 |
| 20260506035119 | 1 | 190 | 0.0 | 3.2 | 0.00 | 0.00 | 0.00 | 69 | 1013.2 |
| 20260506034619 | 1 | 190 | 0.0 | 3.2 | 0.00 | 0.00 | 0.00 | 69 | 1013.1 |
| 20260506034119 | 1 | 139 | 0.0 | 0.0 | 0.00 | 0.00 | 0.00 | 69 | 1013.1 |
| 20260506033620 | 1 | 115 | 0.0 | 0.0 | 0.00 | 0.00 | 0.00 | 69 | 1012.9 |
| 20260506033121 | 1 | 141 | 0.0 | 1.6 | 0.00 | 0.00 | 0.00 | 70 | 1012.8 |
| 20260506032618 | 1 | 107 | 0.0 | 1.6 | 0.00 | 0.00 | 0.00 | 70 | 1012.9 |
| 20260506032118 | 1 | 144 | 0.0 | 0.0 | 0.00 | 0.00 | 0.00 | 70 | 1012.9 |
| 20260506031620 | 1 | 338 | 0.0 | 1.6 | 0.00 | 0.00 | 0.00 | 69 | 1012.9 |
| 20260506031114 | 2 | 339 | 0.0 | 1.6 | 0.00 | 0.00 | 0.00 | 69 | 1012.8 |
| 20260506030615 | 2 | 115 | 0.0 | 1.6 | 0.00 | 0.00 | 0.00 | 69 | 1012.8 |
| 20260506030115 | 2 | 103 | 0.0 | 0.0 | 0.00 | 0.00 | 0.00 | 69 | 1012.8 |
| 20260506025848 | 2 | 103 | 0.0 | 0.0 | 0.00 | 0.00 | 0.00 | 68 | 1012.8 |
| 20260506025114 | 2 | 103 | 0.0 | 0.0 | 0.00 | 0.00 | 0.00 | 67 | 1012.8 |
| 20260506024614 | 2 | 117 | 0.0 | 0.0 | 0.00 | 0.00 | 0.00 | 67 | 1012.8 |
| 20260506024116 | 2 | 32 | 0.0 | 0.0 | 0.00 | 0.00 | 0.00 | 66 | 1012.7 |
| 20260506023615 | 2 | 121 | 0.0 | 0.0 | 0.00 | 0.00 | 0.00 | 66 | 1012.7 |
| 20260506023116 | 3 | 63 | 0.0 | 0.0 | 0.00 | 0.00 | 0.00 | 65 | 1012.6 |
| 20260506022610 | 3 | 63 | 0.0 | 0.0 | 0.00 | 0.00 | 0.00 | 63 | 1012.5 |
| 20260506022110 | 3 | 63 | 0.0 | 0.0 | 0.00 | 0.00 | 0.00 | 62 | 1012.5 |
| 20260506021612 | 4 | 100 | 0.0 | 1.6 | 0.00 | 0.00 | 0.00 | 62 | 1012.4 |
| 20260506021111 | 4 | 142 | 0.0 | 1.6 | 0.00 | 0.00 | 0.00 | 61 | 1012.4 |
| 20260506020841 | 4 | 271 | 0.0 | 3.2 | 0.00 | 0.00 | 0.00 | 60 | 1012.3 |
| 20260506020116 | 5 | 85 | 0.0 | 1.6 | 0.00 | 0.00 | 0.00 | 59 | 1012.0 |
| 20260506020111 | 5 | 128 | 0.0 | 3.2 | 0.00 | 0.00 | 0.00 | 59 | 1012.2 |
| 20260506015111 | 5 | 80 | 0.0 | 3.2 | 0.00 | 0.00 | 0.00 | 58 | 1012.0 |
| 20260506014612 | 5 | 13 | 0.0 | 3.2 | 0.00 | 0.00 | 0.00 | 58 | 1011.9 |
| 20260506014340 | 5 | 120 | 0.0 | 1.6 | 0.00 | 0.00 | 0.00 | 58 | 1011.9 |
| 20260506013608 | 5 | 28 | 0.0 | 3.2 | 0.00 | 0.00 | 0.00 | 57 | 1011.8 |
| 20260506013340 | 5 | 19 | 0.0 | 3.2 | 0.00 | 0.00 | 0.00 | 56 | 1011.7 |
| 20260506012607 | 5 | 88 | 0.0 | 4.8 | 0.00 | 0.00 | 0.00 | 55 | 1011.6 |
| 20260506012106 | 5 | 15 | 0.0 | 4.8 | 0.00 | 0.00 | 0.00 | 58 | 1011.6 |
| 20260506011606 | 6 | 22 | 0.0 | 0.0 | 0.00 | 0.00 | 0.00 | 57 | 1011.6 |
| 20260506011106 | 6 | 9 | 0.0 | 3.2 | 0.00 | 0.00 | 0.00 | 54 | 1011.5 |
| 20260506010606 | 6 | 89 | 0.0 | 3.2 | 0.00 | 0.00 | 0.00 | 53 | 1011.4 |
| 20260506010107 | 6 | 134 | 0.0 | 4.8 | 0.00 | 0.00 | 0.00 | 53 | 1011.4 |
| 20260506005607 | 7 | 335 | 0.0 | 6.4 | 0.00 | 0.00 | 0.00 | 52 | 1011.4 |
| 20260506005108 | 7 | 298 | 0.0 | 6.4 | 0.00 | 0.00 | 0.00 | 52 | 1011.3 |
| 20260506004607 | 7 | 132 | 0.0 | 1.6 | 0.00 | 0.00 | 0.00 | 52 | 1011.3 |
| 20260506004107 | 7 | 162 | 0.0 | 1.6 | 0.00 | 0.00 | 0.00 | 51 | 1011.2 |
| 20260506003842 | 8 | 131 | 0.0 | 3.2 | 0.00 | 0.00 | 0.00 | 51 | 1011.1 |
| 20260506003106 | 8 | 79 | 0.0 | 4.8 | 0.00 | 0.00 | 0.00 | 50 | 1011.0 |
| 20260506002603 | 8 | 222 | 0.0 | 4.8 | 0.00 | 0.00 | 0.00 | 49 | 1010.8 |
| 20260506002102 | 8 | 116 | 0.0 | 4.8 | 0.00 | 0.00 | 0.00 | 48 | 1010.9 |
| 20260506001602 | 9 | 6 | 0.0 | 4.8 | 0.00 | 0.00 | 0.00 | 47 | 1010.8 |
| 20260506001340 | 8 | 173 | 0.0 | 6.4 | 0.00 | 0.00 | 0.00 | 48 | 1010.8 |
| 20260506000557 | 9 | 319 | 1.6 | 6.4 | 0.00 | 0.00 | 0.00 | 47 | 1010.8 |
| 20260506000055 | 9 | 126 | 1.6 | 9.7 | 0.00 | 0.00 | 0.00 | 47 | 1010.7 |
| 20260505235555 | 10 | 184 | 0.0 | 9.7 | 0.00 | 0.00 | 0.00 | 45 | 1010.6 |
| 20260505235055 | 10 | 116 | 0.0 | 4.8 | 0.00 | 0.00 | 0.00 | 44 | 1010.6 |
| 20260505234554 | 10 | 135 | 0.0 | 9.7 | 0.00 | 0.00 | 0.00 | 43 | 1010.5 |
| 20260505234053 | 10 | 100 | 0.0 | 9.7 | 0.00 | 0.00 | 0.00 | 45 | 1010.5 |
| 20260505233551 | 10 | 147 | 0.0 | 1.6 | 0.00 | 0.00 | 0.00 | 47 | 1010.5 |
| 20260505233051 | 10 | 134 | 0.0 | 11.3 | 0.00 | 0.00 | 0.00 | 46 | 1010.4 |
| 20260505232824 | 10 | 139 | 0.0 | 11.3 | 0.00 | 0.00 | 0.00 | 43 | 1010.4 |
| 20260505232050 | 10 | 146 | 0.0 | 6.4 | 0.00 | 0.00 | 0.00 | 46 | 1010.4 |
| 20260505231551 | 10 | 170 | 0.0 | 6.4 | 0.00 | 0.00 | 0.00 | 45 | 1010.4 |
| 20260505231049 | 10 | 125 | 0.0 | 3.2 | 0.00 | 0.00 | 0.00 | 46 | 1010.3 |
| 20260505230550 | 9 | 323 | 0.0 | 3.2 | 0.00 | 0.00 | 0.00 | 46 | 1010.4 |
| 20260505230049 | 9 | 101 | 0.0 | 3.2 | 0.00 | 0.00 | 0.00 | 47 | 1010.3 |
| 20260505225550 | 9 | 91 | 0.0 | 4.8 | 0.00 | 0.00 | 0.00 | 46 | 1010.4 |
| 20260505225048 | 10 | 22 | 0.0 | 4.8 | 0.00 | 0.00 | 0.00 | 43 | 1010.3 |
| 20260505224548 | 10 | 287 | 0.0 | 4.8 | 0.00 | 0.00 | 0.00 | 43 | 1010.3 |
| 20260505224049 | 11 | 314 | 0.0 | 4.8 | 0.00 | 0.00 | 0.00 | 45 | 1010.2 |
| 20260505223817 | 10 | 119 | 0.0 | 1.6 | 0.00 | 0.00 | 0.00 | 47 | 1010.2 |
| 20260505223045 | 9 | 115 | 0.0 | 4.8 | 0.00 | 0.00 | 0.00 | 44 | 1010.2 |
| 20260505222545 | 10 | 323 | 1.6 | 8.0 | 0.00 | 0.00 | 0.00 | 47 | 1010.3 |
| 20260505222043 | 10 | 124 | 1.6 | 9.7 | 0.00 | 0.00 | 0.00 | 45 | 1010.2 |
| 20260505221542 | 9 | 224 | 1.6 | 11.3 | 0.00 | 0.00 | 0.00 | 45 | 1010.3 |
| 20260505221042 | 9 | 136 | 1.6 | 11.3 | 0.00 | 0.00 | 0.00 | 46 | 1010.2 |
| 20260505220544 | 9 | 149 | 1.6 | 8.0 | 0.00 | 0.00 | 0.00 | 48 | 1010.3 |
| 20260505220312 | 9 | 170 | 4.8 | 16.1 | 0.00 | 0.00 | 0.00 | 44 | 1010.3 |
| 20260505215540 | 10 | 180 | 6.4 | 16.1 | 0.00 | 0.00 | 0.00 | 44 | 1010.3 |
| 20260505215312 | 10 | 156 | 6.4 | 12.9 | 0.00 | 0.00 | 0.00 | 46 | 1010.4 |
| 20260505214542 | 10 | 189 | 8.0 | 12.9 | 0.00 | 0.00 | 0.00 | 44 | 1010.5 |
| 20260505214314 | 11 | 201 | 8.0 | 12.9 | 0.00 | 0.00 | 0.00 | 44 | 1010.4 |
| 20260505213540 | 10 | 163 | 6.4 | 16.1 | 0.00 | 0.00 | 0.00 | 44 | 1010.4 |
| 20260505213041 | 10 | 191 | 3.2 | 16.1 | 0.00 | 0.00 | 0.00 | 43 | 1010.4 |
| 20260505212534 | 10 | 214 | 4.8 | 11.3 | 0.00 | 0.00 | 0.00 | 46 | 1010.4 |
| 20260505212027 | 10 | 190 | 8.0 | 17.7 | 0.00 | 0.00 | 0.00 | 44 | 1010.4 |
| 20260505211522 | 10 | 152 | 8.0 | 17.7 | 0.00 | 0.00 | 0.00 | 43 | 1010.5 |
| 20260505211015 | 11 | 228 | 3.2 | 14.5 | 0.00 | 0.00 | 0.00 | 42 | 1010.4 |
| 20260505210509 | 11 | 203 | 3.2 | 11.3 | 0.00 | 0.00 | 0.00 | 48 | 1010.6 |
| 20260505210005 | 10 | 277 | 3.2 | 11.3 | 0.00 | 0.00 | 0.00 | 46 | 1010.6 |
| 20260505205729 | 10 | 184 | 1.6 | 11.3 | 0.00 | 0.00 | 0.00 | 46 | 1010.5 |
| 20260505204958 | 11 | 203 | 1.6 | 11.3 | 0.00 | 0.00 | 0.00 | 46 | 1010.6 |
| 20260505204458 | 11 | 188 | 3.2 | 11.3 | 0.00 | 0.00 | 0.00 | 46 | 1010.7 |
| 20260505204000 | 10 | 36 | 6.4 | 14.5 | 0.00 | 0.00 | 0.00 | 46 | 1010.6 |
| 20260505203458 | 10 | 207 | 4.8 | 14.5 | 0.00 | 0.00 | 0.00 | 44 | 1010.5 |
| 20260505202956 | 10 | 120 | 4.8 | 11.3 | 0.00 | 0.00 | 0.00 | 45 | 1010.6 |
| 20260505202457 | 10 | 208 | 4.8 | 12.9 | 0.00 | 0.00 | 0.00 | 44 | 1010.7 |
| 20260505201956 | 10 | 197 | 3.2 | 12.9 | 0.00 | 0.00 | 0.00 | 46 | 1010.7 |
| 20260505201457 | 10 | 118 | 3.2 | 9.7 | 0.00 | 0.00 | 0.00 | 47 | 1010.8 |
| 20260505200956 | 10 | 217 | 1.6 | 9.7 | 0.00 | 0.00 | 0.00 | 43 | 1010.7 |
| 20260505200457 | 11 | 213 | 3.2 | 12.9 | 0.00 | 0.00 | 0.00 | 47 | 1010.8 |
| 20260505195956 | 11 | 143 | 3.2 | 12.9 | 0.00 | 0.00 | 0.00 | 42 | 1010.8 |
| 20260505195454 | 11 | 197 | 1.6 | 11.3 | 0.00 | 0.00 | 0.00 | 44 | 1010.7 |
| 20260505194955 | 11 | 47 | 1.6 | 11.3 | 0.00 | 0.00 | 0.00 | 47 | 1010.7 |
| 20260505194457 | 10 | 273 | 3.2 | 11.3 | 0.00 | 0.00 | 0.00 | 47 | 1010.6 |
| 20260505193952 | 10 | 99 | 4.8 | 11.3 | 0.00 | 0.00 | 0.00 | 45 | 1010.7 |
| 20260505193445 | 10 | 221 | 4.8 | 11.3 | 0.00 | 0.00 | 0.00 | 44 | 1010.6 |
| 20260505192940 | 10 | 193 | 3.2 | 11.3 | 0.00 | 0.00 | 0.00 | 43 | 1010.7 |
| 20260505192434 | 10 | 121 | 3.2 | 11.3 | 0.00 | 0.00 | 0.00 | 45 | 1010.7 |
| 20260505191927 | 10 | 169 | 3.2 | 11.3 | 0.00 | 0.00 | 0.00 | 47 | 1010.7 |
| 20260505191421 | 10 | 169 | 3.2 | 9.7 | 0.00 | 0.00 | 0.00 | 45 | 1010.8 |
| 20260505190916 | 10 | 102 | 1.6 | 9.7 | 0.00 | 0.00 | 0.00 | 45 | 1010.7 |
| 20260505190411 | 10 | 197 | 1.6 | 9.7 | 0.00 | 0.00 | 0.00 | 44 | 1010.7 |
| 20260505185911 | 10 | 214 | 1.6 | 6.4 | 0.00 | 0.00 | 0.00 | 45 | 1010.8 |
| 20260505185409 | 10 | 226 | 1.6 | 6.4 | 0.00 | 0.00 | 0.00 | 45 | 1010.8 |
| 20260505184908 | 10 | 338 | 1.6 | 8.0 | 0.00 | 0.00 | 0.00 | 44 | 1010.8 |
| 20260505184639 | 10 | 68 | 1.6 | 8.0 | 0.00 | 0.00 | 0.00 | 44 | 1010.7 |
| 20260505183907 | 10 | 126 | 1.6 | 8.0 | 0.00 | 0.00 | 0.00 | 46 | 1010.8 |
| 20260505183406 | 10 | 193 | 1.6 | 12.9 | 0.00 | 0.00 | 0.00 | 44 | 1010.8 |
| 20260505182903 | 10 | 309 | 4.8 | 12.9 | 0.00 | 0.00 | 0.00 | 44 | 1010.7 |
| 20260505182402 | 10 | 147 | 4.8 | 11.3 | 0.00 | 0.00 | 0.00 | 46 | 1010.7 |
| 20260505182134 | 10 | 203 | 6.4 | 12.9 | 0.00 | 0.00 | 0.00 | 46 | 1010.7 |
| 20260505181401 | 9 | 167 | 4.8 | 12.9 | 0.00 | 0.00 | 0.00 | 45 | 1010.7 |
| 20260505180903 | 9 | 193 | 1.6 | 12.9 | 0.00 | 0.00 | 0.00 | 45 | 1010.8 |
| 20260505180401 | 9 | 153 | 3.2 | 12.9 | 0.00 | 0.00 | 0.00 | 46 | 1010.7 |
| 20260505175901 | 9 | 130 | 6.4 | 12.9 | 0.00 | 0.00 | 0.00 | 48 | 1010.7 |
| 20260505175400 | 9 | 222 | 4.8 | 12.9 | 0.00 | 0.00 | 0.00 | 45 | 1010.7 |
| 20260505174900 | 9 | 214 | 1.6 | 8.0 | 0.00 | 0.00 | 0.00 | 45 | 1010.7 |
| 20260505174401 | 8 | 116 | 4.8 | 16.1 | 0.00 | 0.00 | 0.00 | 44 | 1010.7 |
| 20260505173859 | 9 | 215 | 6.4 | 16.1 | 0.00 | 0.00 | 0.00 | 44 | 1010.8 |
| 20260505173630 | 9 | 232 | 6.4 | 16.1 | 0.00 | 0.00 | 0.00 | 46 | 1010.7 |
| 20260505172853 | 10 | 153 | 3.2 | 16.1 | 0.00 | 0.00 | 0.00 | 45 | 1010.6 |
| 20260505172620 | 9 | 229 | 1.6 | 9.7 | 0.00 | 0.00 | 0.00 | 47 | 1010.8 |
| 20260505171841 | 9 | 98 | 3.2 | 16.1 | 0.00 | 0.00 | 0.00 | 43 | 1010.7 |
| 20260505171334 | 10 | 293 | 4.8 | 16.1 | 0.00 | 0.00 | 0.00 | 43 | 1010.8 |
| 20260505170829 | 11 | 110 | 6.4 | 16.1 | 0.00 | 0.00 | 0.00 | 41 | 1010.7 |
| 20260505170323 | 11 | 129 | 6.4 | 16.1 | 0.00 | 0.00 | 0.00 | 47 | 1010.7 |
| 20260505165817 | 10 | 165 | 6.4 | 14.5 | 0.00 | 0.00 | 0.00 | 52 | 1010.6 |
| 20260505165542 | 10 | 163 | 4.8 | 14.5 | 0.00 | 0.00 | 0.00 | 49 | 1010.8 |
| 20260505164806 | 9 | 203 | 4.8 | 14.5 | 0.00 | 0.00 | 0.00 | 50 | 1010.8 |
| 20260505164259 | 8 | 193 | 4.8 | 12.9 | 0.00 | 0.00 | 0.00 | 48 | 1010.7 |
| 20260505163753 | 9 | 186 | 4.8 | 11.3 | 0.00 | 0.00 | 0.00 | 45 | 1010.6 |
| 20260505163247 | 9 | 191 | 4.8 | 11.3 | 0.00 | 0.00 | 0.00 | 48 | 1010.6 |
| 20260505163009 | 9 | 128 | 6.4 | 17.7 | 0.00 | 0.00 | 0.00 | 49 | 1010.7 |
| 20260505162842 | 9 | 210 | 4.8 | 11.3 | 0.00 | 0.00 | 0.00 | 49 | 1010.6 |
| 20260505161959 | 9 | 103 | 6.4 | 17.7 | 0.00 | 0.00 | 0.00 | 49 | 1010.7 |
| 20260505161223 | 9 | 149 | 4.8 | 17.7 | 0.00 | 0.00 | 0.00 | 50 | 1010.6 |
| 20260505160716 | 8 | 153 | 1.6 | 11.3 | 0.00 | 0.00 | 0.00 | 50 | 1010.8 |
| 20260505160210 | 8 | 153 | 4.8 | 12.9 | 0.00 | 0.00 | 0.00 | 48 | 1010.7 |
| 20260505152629 | 7 | 158 | 0.0 | 8.0 | 0.00 | 0.00 | 0.00 | 49 | 1010.8 |
| 20260505152122 | 7 | 88 | 1.6 | 8.0 | 0.00 | 0.00 | 0.00 | 50 | 1010.7 |
| 20260505151617 | 7 | 359 | 3.2 | 9.7 | 0.00 | 0.00 | 0.00 | 47 | 1010.8 |
| 20260505151342 | 8 | 155 | 4.8 | 11.3 | 0.00 | 0.00 | 0.00 | 53 | 1010.6 |
| 20260505150605 | 8 | 233 | 3.2 | 11.3 | 0.00 | 0.00 | 0.00 | 50 | 1010.7 |